| time (UTC) | temp F | wind direction | speed MPH | gust MPH | rain 1hr in | rain 24hr in | rain mn in | humidity % | barometer mb |
| 20260503040914 | 40 | 271 | 0.0 | 2.0 | 0.00 | 0.00 | 0.00 | ||
| 20260503040409 | 40 | 271 | 0.0 | 2.0 | 0.00 | 0.00 | 0.00 | ||
| 20260503035904 | 40 | 278 | 0.0 | 1.0 | 0.00 | 0.00 | 0.00 | ||
| 20260503034851 | 41 | 346 | 0.0 | 3.0 | 0.00 | 0.00 | 0.00 | ||
| 20260503034346 | 42 | 284 | 0.0 | 0.0 | 0.00 | 0.00 | 0.00 | ||
| 20260503033841 | 41 | 284 | 0.0 | 0.0 | 0.00 | 0.00 | 0.00 | ||
| 20260503033336 | 42 | 284 | 0.0 | 1.0 | 0.00 | 0.00 | 0.00 | ||
| 20260503032831 | 42 | 283 | 1.0 | 2.0 | 0.00 | 0.00 | 0.00 | ||
| 20260503032323 | 41 | 318 | 1.0 | 1.0 | 0.00 | 0.00 | 0.00 | ||
| 20260503031818 | 42 | 312 | 0.0 | 4.0 | 0.00 | 0.00 | 0.00 | ||
| 20260503031313 | 44 | 293 | 0.0 | 3.0 | 0.00 | 0.00 | 0.00 | ||
| 20260503030808 | 44 | 308 | 0.0 | 5.0 | 0.00 | 0.00 | 0.00 | ||
| 20260503030303 | 46 | 37 | 1.0 | 5.0 | 0.00 | 0.00 | 0.00 | ||
| 20260503025758 | 44 | 30 | 1.0 | 7.0 | 0.00 | 0.00 | 0.00 | ||
| 20260503025250 | 44 | 309 | 1.0 | 7.0 | 0.00 | 0.00 | 0.00 | ||
| 20260503024745 | 45 | 353 | 3.0 | 5.0 | 0.00 | 0.00 | 0.00 | ||
| 20260503024240 | 46 | 27 | 3.0 | 3.0 | 0.00 | 0.00 | 0.00 | ||
| 20260503023735 | 46 | 290 | 0.0 | 5.0 | 0.00 | 0.00 | 0.00 | ||
| 20260503023230 | 46 | 6 | 0.0 | 10.0 | 0.00 | 0.00 | 0.00 | ||
| 20260503022218 | 47 | 305 | 1.0 | 8.0 | 0.00 | 0.00 | 0.00 | ||
| 20260503021713 | 46 | 347 | 1.0 | 6.0 | 0.00 | 0.00 | 0.00 | ||
| 20260503021208 | 48 | 285 | 3.0 | 3.0 | 0.00 | 0.00 | 0.00 | ||
| 20260503020703 | 47 | 309 | 1.0 | 7.0 | 0.00 | 0.00 | 0.00 | ||
| 20260503020158 | 48 | 14 | 3.0 | 5.0 | 0.00 | 0.00 | 0.00 | ||
| 20260503015653 | 47 | 31 | 0.0 | 8.0 | 0.00 | 0.00 | 0.00 | ||
| 20260503015145 | 48 | 34 | 0.0 | 4.0 | 0.00 | 0.00 | 0.00 | ||
| 20260503014640 | 48 | 345 | 3.0 | 8.0 | 0.00 | 0.00 | 0.00 | ||
| 20260503014136 | 48 | 25 | 0.0 | 7.0 | 0.00 | 0.00 | 0.00 | ||
| 20260503013631 | 50 | 17 | 3.0 | 11.0 | 0.00 | 0.00 | 0.00 | ||
| 20260503013126 | 50 | 349 | 2.0 | 7.0 | 0.00 | 0.00 | 0.00 | ||
| 20260503012621 | 50 | 250 | 3.0 | 9.0 | 0.00 | 0.00 | 0.00 | ||
| 20260503012113 | 51 | 7 | 3.0 | 12.0 | 0.00 | 0.00 | 0.00 | ||
| 20260503011609 | 51 | 10 | 1.0 | 8.0 | 0.00 | 0.00 | 0.00 | ||
| 20260503011104 | 50 | 352 | 2.0 | 9.0 | 0.00 | 0.00 | 0.00 | ||
| 20260503010559 | 50 | 0 | 2.0 | 11.0 | 0.00 | 0.00 | 0.00 | ||
| 20260503010054 | 50 | 31 | 3.0 | 8.0 | 0.00 | 0.00 | 0.00 | ||
| 20260503005549 | 49 | 280 | 1.0 | 3.0 | 0.00 | 0.00 | 0.00 | ||
| 20260503005041 | 50 | 20 | 1.0 | 4.0 | 0.00 | 0.00 | 0.00 | ||
| 20260503004537 | 51 | 354 | 1.0 | 4.0 | 0.00 | 0.00 | 0.00 | ||
| 20260503004032 | 51 | 330 | 0.0 | 5.0 | 0.00 | 0.00 | 0.00 | ||
| 20260503003527 | 52 | 20 | 0.0 | 6.0 | 0.00 | 0.00 | 0.00 | ||
| 20260503003022 | 51 | 246 | 2.0 | 5.0 | 0.00 | 0.00 | 0.00 | ||
| 20260503002517 | 51 | 339 | 0.0 | 6.0 | 0.00 | 0.00 | 0.00 | ||
| 20260503002010 | 51 | 23 | 1.0 | 7.0 | 0.00 | 0.00 | 0.00 | ||
| 20260503001505 | 51 | 10 | 2.0 | 7.0 | 0.00 | 0.00 | 0.00 | ||
| 20260503001000 | 52 | 17 | 1.0 | 6.0 | 0.00 | 0.00 | 0.00 | ||
| 20260503000455 | 51 | 343 | 1.0 | 6.0 | 0.00 | 0.00 | 0.00 | ||
| 20260502235950 | 52 | 353 | 1.0 | 7.0 | 0.00 | 0.00 | 0.00 | ||
| 20260502235446 | 53 | 8 | 1.0 | 4.0 | 0.00 | 0.00 | 0.00 | ||
| 20260502234938 | 52 | 349 | 1.0 | 5.0 | 0.00 | 0.00 | 0.00 | ||
| 20260502234433 | 52 | 333 | 2.0 | 3.0 | 0.00 | 0.00 | 0.00 | ||
| 20260502233424 | 53 | 62 | 1.0 | 6.0 | 0.00 | 0.00 | 0.00 | ||
| 20260502232919 | 53 | 352 | 2.0 | 6.0 | 0.00 | 0.00 | 0.00 | ||
| 20260502232415 | 53 | 342 | 2.0 | 8.0 | 0.00 | 0.00 | 0.00 | ||
| 20260502231907 | 54 | 41 | 2.0 | 7.0 | 0.00 | 0.00 | 0.00 | ||
| 20260502231402 | 54 | 346 | 3.0 | 5.0 | 0.00 | 0.00 | 0.00 | ||
| 20260502230353 | 55 | 307 | 3.0 | 7.0 | 0.00 | 0.00 | 0.00 | ||
| 20260502225848 | 55 | 46 | 1.0 | 7.0 | 0.00 | 0.00 | 0.00 | ||
| 20260502225343 | 55 | 269 | 1.0 | 7.0 | 0.00 | 0.00 | 0.00 | ||
| 20260502224836 | 55 | 11 | 3.0 | 7.0 | 0.00 | 0.00 | 0.00 | ||
| 20260502224332 | 56 | 352 | 0.0 | 6.0 | 0.00 | 0.00 | 0.00 | ||
| 20260502223826 | 56 | 305 | 4.0 | 7.0 | 0.00 | 0.00 | 0.00 | ||
| 20260502223322 | 54 | 338 | 1.0 | 8.0 | 0.00 | 0.00 | 0.00 | ||
| 20260502222817 | 55 | 51 | 0.0 | 7.0 | 0.00 | 0.00 | 0.00 | ||
| 20260502222312 | 56 | 288 | 2.0 | 7.0 | 0.00 | 0.00 | 0.00 | ||
| 20260502221805 | 58 | 302 | 1.0 | 6.0 | 0.00 | 0.00 | 0.00 | ||
| 20260502221300 | 57 | 28 | 0.0 | 4.0 | 0.00 | 0.00 | 0.00 | ||
| 20260502220756 | 58 | 31 | 2.0 | 9.0 | 0.00 | 0.00 | 0.00 | ||
| 20260502220251 | 57 | 357 | 1.0 | 9.0 | 0.00 | 0.00 | 0.00 | ||
| 20260502215746 | 59 | 345 | 3.0 | 8.0 | 0.00 | 0.00 | 0.00 | ||
| 20260502214734 | 57 | 316 | 6.0 | 7.0 | 0.00 | 0.00 | 0.00 | ||
| 20260502214229 | 55 | 328 | 2.0 | 9.0 | 0.00 | 0.00 | 0.00 | ||
| 20260502213724 | 56 | 302 | 3.0 | 8.0 | 0.00 | 0.00 | 0.00 | ||
| 20260502213220 | 57 | 305 | 5.0 | 9.0 | 0.00 | 0.00 | 0.00 | ||
| 20260502212210 | 58 | 290 | 1.0 | 5.0 | 0.00 | 0.00 | 0.00 | ||
| 20260502211703 | 59 | 346 | 2.0 | 10.0 | 0.00 | 0.00 | 0.00 | ||
| 20260502211158 | 59 | 284 | 9.0 | 9.0 | 0.00 | 0.00 | 0.00 | ||
| 20260502210148 | 56 | 53 | 2.0 | 11.0 | 0.00 | 0.00 | 0.00 | ||
| 20260502205643 | 58 | 27 | 2.0 | 10.0 | 0.00 | 0.00 | 0.00 | ||
| 20260502205139 | 57 | 329 | 2.0 | 7.0 | 0.00 | 0.00 | 0.00 | ||
| 20260502204631 | 59 | 249 | 1.0 | 7.0 | 0.00 | 0.00 | 0.00 | ||
| 20260502204126 | 58 | 4 | 3.0 | 12.0 | 0.00 | 0.00 | 0.00 | ||
| 20260502203622 | 58 | 27 | 1.0 | 16.0 | 0.00 | 0.00 | 0.00 | ||
| 20260502203117 | 58 | 288 | 7.0 | 16.0 | 0.00 | 0.00 | 0.00 | ||
| 20260502202612 | 61 | 13 | 4.0 | 18.0 | 0.00 | 0.00 | 0.00 | ||
| 20260502202108 | 64 | 278 | 10.0 | 14.0 | 0.00 | 0.00 | 0.00 | ||
| 20260502201600 | 63 | 288 | 8.0 | 15.0 | 0.00 | 0.00 | 0.00 | ||
| 20260502201055 | 65 | 278 | 5.0 | 18.0 | 0.00 | 0.00 | 0.00 | ||
| 20260502200551 | 65 | 271 | 16.0 | 13.0 | 0.00 | 0.00 | 0.00 | ||
| 20260502200046 | 65 | 228 | 5.0 | 12.0 | 0.00 | 0.00 | 0.00 | ||
| 20260502195541 | 61 | 308 | 2.0 | 12.0 | 0.00 | 0.00 | 0.00 | ||
| 20260502195036 | 60 | 316 | 7.0 | 12.0 | 0.00 | 0.00 | 0.00 | ||
| 20260502194529 | 60 | 290 | 8.0 | 8.0 | 0.00 | 0.00 | 0.00 | ||
| 20260502194024 | 61 | 308 | 3.0 | 11.0 | 0.00 | 0.00 | 0.00 | ||
| 20260502193519 | 59 | 281 | 8.0 | 8.0 | 0.00 | 0.00 | 0.00 | ||
| 20260502193014 | 59 | 269 | 5.0 | 10.0 | 0.00 | 0.00 | 0.00 | ||
| 20260502192510 | 57 | 266 | 6.0 | 12.0 | 0.00 | 0.00 | 0.00 | ||
| 20260502192005 | 57 | 287 | 9.0 | 10.0 | 0.00 | 0.00 | 0.00 | ||
| 20260502191457 | 58 | 294 | 9.0 | 9.0 | 0.00 | 0.00 | 0.00 | ||
| 20260502190953 | 59 | 347 | 4.0 | 4.0 | 0.00 | 0.00 | 0.00 | ||
| 20260502190448 | 59 | 55 | 1.0 | 11.0 | 0.00 | 0.00 | 0.00 | ||
| 20260502185943 | 60 | 293 | 3.0 | 13.0 | 0.00 | 0.00 | 0.00 | ||
| 20260502185439 | 63 | 345 | 3.0 | 9.0 | 0.00 | 0.00 | 0.00 | ||
| 20260502184934 | 63 | 273 | 3.0 | 10.0 | 0.00 | 0.00 | 0.00 | ||
| 20260502184427 | 59 | 300 | 4.0 | 10.0 | 0.00 | 0.00 | 0.00 | ||
| 20260502183922 | 59 | 307 | 4.0 | 10.0 | 0.00 | 0.00 | 0.00 | ||
| 20260502183418 | 59 | 298 | 5.0 | 10.0 | 0.00 | 0.00 | 0.00 | ||
| 20260502182913 | 60 | 217 | 3.0 | 9.0 | 0.00 | 0.00 | 0.00 | ||
| 20260502182408 | 58 | 281 | 5.0 | 15.0 | 0.00 | 0.00 | 0.00 | ||
| 20260502181903 | 60 | 288 | 9.0 | 13.0 | 0.00 | 0.00 | 0.00 | ||
| 20260502181355 | 61 | 238 | 6.0 | 12.0 | 0.00 | 0.00 | 0.00 | ||
| 20260502180850 | 60 | 245 | 1.0 | 14.0 | 0.00 | 0.00 | 0.00 | ||
| 20260502180346 | 67 | 269 | 12.0 | 9.0 | 0.00 | 0.00 | 0.00 | ||
| 20260502170244 | 64 | 291 | 6.0 | 12.0 | 0.00 | 0.00 | 0.00 | ||
| 20260502164222 | 62 | 304 | 6.0 | 21.0 | 0.00 | 0.00 | 0.00 | ||
| 20260502163718 | 60 | 229 | 1.0 | 14.0 | 0.00 | 0.00 | 0.00 | ||
| 20260502163213 | 60 | 27 | 2.0 | 11.0 | 0.00 | 0.00 | 0.00 | ||
| 20260502162709 | 61 | 17 | 3.0 | 15.0 | 0.00 | 0.00 | 0.00 | ||
| 20260502162204 | 60 | 266 | 14.0 | 11.0 | 0.00 | 0.00 | 0.00 | ||
| 20260502160646 | 62 | 269 | 11.0 | 10.0 | 0.00 | 0.00 | 0.00 | ||
| 20260502160142 | 60 | 339 | 6.0 | 12.0 | 0.00 | 0.00 | 0.00 | ||
| 20260502152102 | 58 | 346 | 3.0 | 18.0 | 0.00 | 0.00 | 0.00 | ||
| 20260502151557 | 58 | 298 | 1.0 | 16.0 | 0.00 | 0.00 | 0.00 | ||
| 20260502151049 | 57 | 284 | 11.0 | 17.0 | 0.00 | 0.00 | 0.00 | ||
| 20260502130336 | 49 | 290 | 9.0 | 15.0 | 0.00 | 0.00 | 0.00 | ||
| 20260502123809 | 48 | 38 | 1.0 | 9.0 | 0.00 | 0.00 | 0.00 | ||
| 20260502123304 | 47 | 281 | 2.0 | 14.0 | 0.00 | 0.00 | 0.00 | ||
| 20260502122758 | 47 | 304 | 5.0 | 10.0 | 0.00 | 0.00 | 0.00 | ||
| 20260502122253 | 47 | 271 | 5.0 | 15.0 | 0.00 | 0.00 | 0.00 | ||
| 20260502121748 | 46 | 291 | 4.0 | 16.0 | 0.00 | 0.00 | 0.00 | ||
| 20260502121243 | 47 | 347 | 1.0 | 15.0 | 0.00 | 0.00 | 0.00 | ||
| 20260502120735 | 46 | 290 | 5.0 | 16.0 | 0.00 | 0.00 | 0.00 | ||
| 20260502120230 | 45 | 325 | 3.0 | 16.0 | 0.00 | 0.00 | 0.00 | ||
| 20260502115725 | 46 | 257 | 9.0 | 13.0 | 0.00 | 0.00 | 0.00 | ||
| 20260502115220 | 45 | 294 | 6.0 | 15.0 | 0.00 | 0.00 | 0.00 | ||
| 20260502114715 | 44 | 318 | 4.0 | 16.0 | 0.00 | 0.00 | 0.00 | ||
| 20260502114210 | 45 | 339 | 5.0 | 16.0 | 0.00 | 0.00 | 0.00 | ||
| 20260502113703 | 45 | 293 | 4.0 | 19.0 | 0.00 | 0.00 | 0.00 | ||
| 20260502113157 | 44 | 321 | 8.0 | 19.0 | 0.00 | 0.00 | 0.00 | ||
| 20260502112653 | 44 | 308 | 6.0 | 16.0 | 0.00 | 0.00 | 0.00 | ||
| 20260502111643 | 43 | 297 | 6.0 | 11.0 | 0.00 | 0.00 | 0.00 | ||
| 20260502111138 | 43 | 340 | 2.0 | 14.0 | 0.00 | 0.00 | 0.00 | ||
| 20260502110630 | 45 | 293 | 8.0 | 19.0 | 0.00 | 0.00 | 0.00 | ||
| 20260502110125 | 44 | 297 | 6.0 | 13.0 | 0.00 | 0.00 | 0.00 | ||
| 20260502105620 | 44 | 295 | 7.0 | 13.0 | 0.00 | 0.00 | 0.00 | ||
| 20260502105115 | 44 | 287 | 6.0 | 13.0 | 0.00 | 0.00 | 0.00 | ||
| 20260502104610 | 43 | 18 | 3.0 | 14.0 | 0.00 | 0.00 | 0.00 | ||
| 20260502104105 | 44 | 304 | 10.0 | 17.0 | 0.00 | 0.00 | 0.00 | ||
| 20260502103557 | 43 | 284 | 9.0 | 12.0 | 0.00 | 0.00 | 0.00 | ||
| 20260502103052 | 45 | 294 | 6.0 | 9.0 | 0.00 | 0.00 | 0.00 | ||
| 20260502102547 | 44 | 353 | 4.0 | 11.0 | 0.00 | 0.00 | 0.00 | ||
| 20260502102042 | 44 | 0 | 4.0 | 11.0 | 0.00 | 0.00 | 0.00 | ||
| 20260502101537 | 43 | 297 | 5.0 | 13.0 | 0.00 | 0.00 | 0.00 | ||
| 20260502101032 | 45 | 295 | 5.0 | 6.0 | 0.00 | 0.00 | 0.00 | ||
| 20260502100524 | 44 | 302 | 4.0 | 6.0 | 0.00 | 0.00 | 0.00 | ||
| 20260502091431 | 46 | 298 | 9.0 | 17.0 | 0.00 | 0.00 | 0.00 | ||
| 20260502090926 | 47 | 294 | 7.0 | 18.0 | 0.00 | 0.00 | 0.00 | ||
| 20260502090418 | 46 | 295 | 6.0 | 12.0 | 0.00 | 0.00 | 0.00 | ||
| 20260502071218 | 49 | 284 | 6.0 | 13.0 | 0.00 | 0.00 | 0.00 | ||
| 20260502070713 | 50 | 346 | 3.0 | 15.0 | 0.00 | 0.00 | 0.00 | ||
| 20260502070205 | 51 | 269 | 9.0 | 8.0 | 0.00 | 0.00 | 0.00 | ||
| 20260502065700 | 49 | 284 | 5.0 | 10.0 | 0.00 | 0.00 | 0.00 | ||
| 20260502065155 | 51 | 329 | 7.0 | 10.0 | 0.00 | 0.00 | 0.00 | ||
| 20260502064649 | 51 | 305 | 6.0 | 11.0 | 0.00 | 0.00 | 0.00 | ||
| 20260502064144 | 50 | 8 | 2.0 | 9.0 | 0.00 | 0.00 | 0.00 | ||
| 20260502063639 | 51 | 305 | 3.0 | 10.0 | 0.00 | 0.00 | 0.00 | ||
| 20260502063131 | 50 | 311 | 6.0 | 10.0 | 0.00 | 0.00 | 0.00 | ||
| 20260502062627 | 50 | 280 | 4.0 | 10.0 | 0.00 | 0.00 | 0.00 | ||
| 20260502062122 | 51 | 305 | 2.0 | 7.0 | 0.00 | 0.00 | 0.00 | ||
| 20260502061617 | 52 | 321 | 5.0 | 10.0 | 0.00 | 0.00 | 0.00 | ||
| 20260502061112 | 52 | 264 | 2.0 | 10.0 | 0.00 | 0.00 | 0.00 | ||
| 20260502060607 | 52 | 297 | 2.0 | 9.0 | 0.00 | 0.00 | 0.00 | ||
| 20260502060100 | 51 | 354 | 1.0 | 8.0 | 0.00 | 0.00 | 0.00 | ||
| 20260502055555 | 52 | 274 | 4.0 | 10.0 | 0.00 | 0.00 | 0.00 | ||
| 20260502055050 | 52 | 291 | 5.0 | 10.0 | 0.00 | 0.00 | 0.00 | ||
| 20260502054545 | 52 | 285 | 8.0 | 12.0 | 0.00 | 0.00 | 0.00 | ||
| 20260502054040 | 52 | 333 | 5.0 | 12.0 | 0.00 | 0.00 | 0.00 | ||
| 20260502053535 | 51 | 311 | 8.0 | 10.0 | 0.00 | 0.00 | 0.00 | ||
| 20260502053027 | 52 | 49 | 0.0 | 7.0 | 0.00 | 0.00 | 0.00 | ||
| 20260502052523 | 52 | 311 | 3.0 | 12.0 | 0.00 | 0.00 | 0.00 | ||
| 20260502052018 | 52 | 307 | 5.0 | 9.0 | 0.00 | 0.00 | 0.00 | ||
| 20260502051513 | 52 | 323 | 4.0 | 6.0 | 0.00 | 0.00 | 0.00 | ||
| 20260502051008 | 52 | 49 | 0.0 | 10.0 | 0.00 | 0.00 | 0.00 | ||
| 20260502050502 | 52 | 298 | 2.0 | 6.0 | 0.00 | 0.00 | 0.00 | ||
| 20260502045955 | 52 | 298 | 1.0 | 8.0 | 0.00 | 0.00 | 0.00 | ||
| 20260502045450 | 52 | 222 | 0.0 | 8.0 | 0.00 | 0.00 | 0.00 | ||
| 20260502044945 | 51 | 335 | 2.0 | 12.0 | 0.00 | 0.00 | 0.00 | ||
| 20260502044440 | 52 | 308 | 8.0 | 9.0 | 0.00 | 0.00 | 0.00 | ||
| 20260502043935 | 51 | 346 | 6.0 | 6.0 | 0.00 | 0.00 | 0.00 | ||
| 20260502043430 | 53 | 65 | 0.0 | 9.0 | 0.00 | 0.00 | 0.00 | ||
| 20260502042923 | 51 | 294 | 4.0 | 5.0 | 0.00 | 0.00 | 0.00 | ||
| 20260502042418 | 53 | 288 | 5.0 | 5.0 | 0.00 | 0.00 | 0.00 | ||
| 20260502041913 | 52 | 307 | 3.0 | 7.0 | 0.00 | 0.00 | 0.00 | ||
| 20260502041408 | 52 | 273 | 6.0 | 8.0 | 0.00 | 0.00 | 0.00 |